RYR7TN EGKK-EDDH

Flight info

Callsign RYR7TN
Flight time 1h 13m
Altitude 37000
Route FRANE M604 PAAVO Q295 SOMVA DCT MAVAS DCT TULIP Y12 SPY N873 ANDIK M105 RIBSO RIBSO3P
Aircraft B38M/M-SDE1FGHILORVWXY/HB1

Departure

Time 2026-04-24 11:49
Airport London Gatwick Airport (EGKK)

Arrival

Time 2026-04-24 13:02
Airport Hamburg Helmut Schmidt Airport (EDDH)
Time Latitude Longitude Altitude Speed Heading
2026-04-24 11:11 51.15398 -0.17942 213 ft 0 kts 167°
2026-04-24 11:36 51.15416 -0.17948 232 ft 4 kts 167°
2026-04-24 11:36 51.15439 -0.17956 212 ft 4 kts 169°
2026-04-24 11:36 51.15464 -0.17954 209 ft 4 kts 210°
2026-04-24 11:37 51.15480 -0.17924 212 ft 4 kts 248°
2026-04-24 11:37 51.15488 -0.17883 211 ft 4 kts 258°
2026-04-24 11:37 51.15490 -0.17864 215 ft 1 kts 258°
2026-04-24 11:40 51.15489 -0.17872 213 ft 2 kts 258°
2026-04-24 11:40 51.15481 -0.17926 206 ft 9 kts 257°
2026-04-24 11:40 51.15461 -0.18072 209 ft 15 kts 257°
2026-04-24 11:40 51.15394 -0.18148 206 ft 14 kts 169°
2026-04-24 11:41 51.15291 -0.18111 214 ft 16 kts 167°
2026-04-24 11:41 51.15203 -0.18158 206 ft 16 kts 256°
2026-04-24 11:41 51.15185 -0.18337 210 ft 17 kts 260°
2026-04-24 11:41 51.15157 -0.18537 210 ft 19 kts 257°
2026-04-24 11:42 51.15128 -0.18746 216 ft 20 kts 257°
2026-04-24 11:42 51.15098 -0.18969 213 ft 21 kts 257°
2026-04-24 11:42 51.15069 -0.19181 210 ft 20 kts 257°
2026-04-24 11:42 51.15038 -0.19401 211 ft 21 kts 257°
2026-04-24 11:43 51.15005 -0.19644 207 ft 23 kts 258°
2026-04-24 11:43 51.14969 -0.19906 211 ft 25 kts 256°
2026-04-24 11:43 51.14933 -0.20167 208 ft 18 kts 258°
2026-04-24 11:43 51.14904 -0.20372 210 ft 20 kts 257°
2026-04-24 11:44 51.14873 -0.20595 210 ft 22 kts 258°
2026-04-24 11:44 51.14842 -0.20825 206 ft 17 kts 258°
2026-04-24 11:44 51.14817 -0.21003 207 ft 18 kts 257°
2026-04-24 11:44 51.14785 -0.21178 213 ft 17 kts 247°
2026-04-24 11:45 51.14760 -0.21350 206 ft 13 kts 253°
2026-04-24 11:45 51.14683 -0.21385 215 ft 14 kts 150°
2026-04-24 11:45 51.14626 -0.21330 210 ft 0 kts 161°
2026-04-24 11:47 51.14625 -0.21330 210 ft 1 kts 161°
2026-04-24 11:47 51.14612 -0.21323 207 ft 4 kts 161°
2026-04-24 11:47 51.14577 -0.21304 206 ft 8 kts 161°
2026-04-24 11:47 51.14521 -0.21213 206 ft 15 kts 105°
2026-04-24 11:48 51.14533 -0.21075 208 ft 10 kts 78°
2026-04-24 11:48 51.14534 -0.21065 208 ft 1 kts 79°
2026-04-24 11:48 51.14567 -0.20827 211 ft 58 kts 77°
2026-04-24 11:48 51.14707 -0.19809 209 ft 127 kts 77°
2026-04-24 11:49 51.14919 -0.18225 476 ft 157 kts 78°
2026-04-24 11:49 51.15132 -0.16428 1165 ft 170 kts 80°
2026-04-24 11:49 51.15360 -0.14532 2058 ft 173 kts 77°
2026-04-24 11:49 51.15671 -0.12487 2532 ft 208 kts 77°
2026-04-24 11:50 51.16021 -0.10108 3093 ft 232 kts 78°
2026-04-24 11:50 51.16371 -0.07663 4277 ft 229 kts 78°
2026-04-24 11:50 51.16727 -0.05138 4560 ft 234 kts 78°
2026-04-24 11:50 51.16889 -0.02574 4676 ft 234 kts 93°
2026-04-24 11:51 51.16826 0.00113 4776 ft 249 kts 91°
2026-04-24 11:51 51.16777 0.02896 4910 ft 253 kts 91°
2026-04-24 11:51 51.16724 0.05724 4968 ft 258 kts 91°
2026-04-24 11:51 51.16677 0.08607 5437 ft 259 kts 92°
2026-04-24 11:52 51.16624 0.11503 5879 ft 261 kts 92°
2026-04-24 11:52 51.16569 0.14393 6267 ft 261 kts 92°
2026-04-24 11:52 51.16821 0.17238 7339 ft 262 kts 70°
2026-04-24 11:52 51.17849 0.19680 8222 ft 271 kts 44°
2026-04-24 11:53 51.19440 0.21338 9262 ft 279 kts 30°
2026-04-24 11:53 51.21154 0.22880 10072 ft 286 kts 33°
2026-04-24 11:53 51.22883 0.24492 10887 ft 294 kts 32°
2026-04-24 11:53 51.24684 0.26160 11309 ft 314 kts 33°
2026-04-24 11:54 51.26654 0.27989 11777 ft 332 kts 33°
2026-04-24 11:54 51.28691 0.29872 12406 ft 344 kts 33°
2026-04-24 11:54 51.30790 0.31804 13175 ft 349 kts 31°
2026-04-24 11:54 51.32910 0.33747 14014 ft 354 kts 32°
2026-04-24 11:55 51.35075 0.35728 14657 ft 362 kts 31°
2026-04-24 11:55 51.37260 0.37733 15436 ft 365 kts 31°
2026-04-24 11:55 51.39489 0.39780 16096 ft 372 kts 31°
2026-04-24 11:55 51.41740 0.41852 16860 ft 374 kts 31°
2026-04-24 11:56 51.44016 0.43937 17513 ft 381 kts 31°
2026-04-24 11:56 51.46327 0.46066 18233 ft 384 kts 31°
2026-04-24 11:56 51.48657 0.48215 18870 ft 389 kts 31°
2026-04-24 11:56 51.50991 0.50371 19447 ft 393 kts 30°
2026-04-24 11:57 51.53400 0.52594 20059 ft 397 kts 30°
2026-04-24 11:57 51.55774 0.54793 20605 ft 402 kts 30°
2026-04-24 11:57 51.58206 0.57047 21192 ft 405 kts 30°
2026-04-24 11:57 51.60639 0.59303 21797 ft 408 kts 30°
2026-04-24 11:58 51.63113 0.61598 22331 ft 413 kts 30°
2026-04-24 11:58 51.65611 0.63919 22874 ft 417 kts 30°
2026-04-24 11:58 51.68174 0.66304 23433 ft 421 kts 30°
2026-04-24 11:58 51.70686 0.68645 23939 ft 425 kts 30°
2026-04-24 11:59 51.73260 0.71046 24383 ft 429 kts 30°
2026-04-24 11:59 51.75850 0.73465 24821 ft 432 kts 30°
2026-04-24 11:59 51.78459 0.75905 25263 ft 435 kts 29°
2026-04-24 11:59 51.81082 0.78363 25729 ft 438 kts 30°
2026-04-24 12:00 51.83522 0.81305 26270 ft 437 kts 42°
2026-04-24 12:00 51.85639 0.84853 26648 ft 443 kts 53°
2026-04-24 12:00 51.87163 0.89198 27021 ft 446 kts 66°
2026-04-24 12:00 51.88424 0.93797 27381 ft 450 kts 66°
2026-04-24 12:01 51.89678 0.98481 27680 ft 455 kts 67°
2026-04-24 12:01 51.90916 1.03212 28141 ft 457 kts 67°
2026-04-24 12:01 51.92147 1.07988 28455 ft 462 kts 67°
2026-04-24 12:01 51.93384 1.12826 28816 ft 465 kts 67°
2026-04-24 12:02 51.94621 1.17679 29179 ft 469 kts 67°
2026-04-24 12:02 51.95872 1.22605 29511 ft 473 kts 67°
2026-04-24 12:02 51.97126 1.27552 29856 ft 477 kts 67°
2026-04-24 12:02 51.98388 1.32544 30183 ft 480 kts 67°
2026-04-24 12:03 51.99660 1.37584 30513 ft 484 kts 67°
2026-04-24 12:03 52.00934 1.42645 30792 ft 486 kts 67°
2026-04-24 12:03 52.02214 1.47743 31111 ft 488 kts 68°
2026-04-24 12:03 52.03493 1.52856 31472 ft 489 kts 68°
2026-04-24 12:04 52.04780 1.57986 31816 ft 490 kts 68°
2026-04-24 12:04 52.06060 1.63123 32107 ft 493 kts 68°
2026-04-24 12:04 52.07348 1.68298 32377 ft 495 kts 68°
2026-04-24 12:04 52.08639 1.73498 32661 ft 498 kts 68°
2026-04-24 12:05 52.09937 1.78738 32934 ft 500 kts 68°
2026-04-24 12:05 52.11235 1.83989 33261 ft 501 kts 68°
2026-04-24 12:05 52.12535 1.89265 33641 ft 501 kts 69°
2026-04-24 12:05 52.13811 1.94450 34006 ft 501 kts 69°
2026-04-24 12:06 52.15123 1.99800 34360 ft 501 kts 69°
2026-04-24 12:06 52.16394 2.04993 34722 ft 500 kts 69°
2026-04-24 12:06 52.17680 2.10259 35076 ft 499 kts 69°
2026-04-24 12:06 52.18956 2.15498 35411 ft 498 kts 69°
2026-04-24 12:07 52.20233 2.20750 35742 ft 497 kts 69°
2026-04-24 12:07 52.21501 2.25982 36067 ft 497 kts 69°
2026-04-24 12:07 52.22768 2.31217 36383 ft 496 kts 69°
2026-04-24 12:07 52.24030 2.36452 36686 ft 495 kts 69°
2026-04-24 12:08 52.25283 2.41657 36987 ft 494 kts 69°
2026-04-24 12:08 52.26539 2.46888 37303 ft 494 kts 69°
2026-04-24 12:08 52.29043 2.57337 37350 ft 492 kts 69°
2026-04-24 12:09 52.31310 2.67846 37364 ft 491 kts 74°
2026-04-24 12:09 52.33226 2.78574 37348 ft 491 kts 75°
2026-04-24 12:10 52.35110 2.89304 37356 ft 492 kts 75°
2026-04-24 12:11 52.37918 3.05424 37342 ft 491 kts 75°
2026-04-24 12:11 52.39582 3.16164 37319 ft 488 kts 87°
2026-04-24 12:12 52.39416 3.25362 37320 ft 486 kts 95°
2026-04-24 12:12 52.38938 3.38192 37338 ft 486 kts 96°
2026-04-24 12:13 52.38457 3.49214 37319 ft 485 kts 97°
2026-04-24 12:13 52.38045 3.58418 37330 ft 484 kts 97°
2026-04-24 12:14 52.37542 3.69396 37327 ft 483 kts 97°
2026-04-24 12:14 52.37034 3.80303 37333 ft 484 kts 97°
2026-04-24 12:14 52.37066 3.85804 37304 ft 486 kts 82°
2026-04-24 12:15 52.37850 3.91183 37353 ft 487 kts 76°
2026-04-24 12:15 52.39664 4.01930 37322 ft 489 kts 75°
2026-04-24 12:16 52.41530 4.12631 37332 ft 489 kts 75°
2026-04-24 12:16 52.43402 4.23343 37321 ft 489 kts 75°
2026-04-24 12:17 52.45264 4.34060 37327 ft 489 kts 75°
2026-04-24 12:17 52.47117 4.44781 37310 ft 489 kts 75°
2026-04-24 12:18 52.48961 4.55522 37314 ft 489 kts 75°
2026-04-24 12:18 52.50798 4.66285 37311 ft 489 kts 76°
2026-04-24 12:19 52.52613 4.76981 37315 ft 489 kts 76°
2026-04-24 12:19 52.55154 4.87266 37292 ft 487 kts 53°
2026-04-24 12:20 52.59268 4.96174 37289 ft 490 kts 51°
2026-04-24 12:20 52.63456 5.05015 37301 ft 491 kts 51°
2026-04-24 12:21 52.67677 5.13866 37322 ft 491 kts 51°
2026-04-24 12:21 52.71892 5.22731 37311 ft 491 kts 51°
2026-04-24 12:21 52.73795 5.27382 37278 ft 490 kts 65°
2026-04-24 12:22 52.75039 5.32587 37342 ft 488 kts 71°
2026-04-24 12:22 52.77407 5.43142 37302 ft 490 kts 71°
2026-04-24 12:23 52.79704 5.53754 37298 ft 490 kts 71°
2026-04-24 12:23 52.81977 5.64381 37310 ft 491 kts 72°
2026-04-24 12:24 52.84244 5.75042 37303 ft 491 kts 72°
2026-04-24 12:24 52.86504 5.85720 37312 ft 491 kts 72°
2026-04-24 12:25 52.88748 5.96383 37286 ft 491 kts 72°
2026-04-24 12:25 52.90986 6.07077 37294 ft 491 kts 72°
2026-04-24 12:26 52.93217 6.17786 37290 ft 492 kts 72°
2026-04-24 12:26 52.95440 6.28518 37282 ft 492 kts 72°
2026-04-24 12:27 52.97650 6.39246 37281 ft 492 kts 72°
2026-04-24 12:27 52.99838 6.49927 37283 ft 492 kts 72°
2026-04-24 12:28 53.02031 6.60684 37292 ft 492 kts 72°
2026-04-24 12:28 53.04214 6.71456 37293 ft 493 kts 72°
2026-04-24 12:29 53.06391 6.82257 37295 ft 492 kts 72°
2026-04-24 12:29 53.08557 6.93061 37281 ft 492 kts 72°
2026-04-24 12:30 53.10710 7.03852 37273 ft 492 kts 72°
2026-04-24 12:30 53.12859 7.14671 37276 ft 492 kts 72°
2026-04-24 12:31 53.14991 7.25517 37278 ft 493 kts 72°
2026-04-24 12:31 53.17116 7.36369 37275 ft 493 kts 72°
2026-04-24 12:32 53.19237 7.47260 37215 ft 494 kts 72°
2026-04-24 12:32 53.20293 7.52708 36209 ft 498 kts 72°
2026-04-24 12:32 53.21353 7.58191 35306 ft 503 kts 72°
2026-04-24 12:32 53.22417 7.63702 34830 ft 497 kts 72°
2026-04-24 12:33 53.23474 7.69191 34133 ft 496 kts 73°
2026-04-24 12:33 53.24525 7.74668 33372 ft 496 kts 72°
2026-04-24 12:33 53.25572 7.80140 32781 ft 492 kts 72°
2026-04-24 12:33 53.26605 7.85554 32257 ft 486 kts 72°
2026-04-24 12:34 53.27623 7.90908 31760 ft 481 kts 72°
2026-04-24 12:34 53.28625 7.96185 31154 ft 472 kts 72°
2026-04-24 12:34 53.29606 8.01370 30299 ft 466 kts 72°
2026-04-24 12:34 53.30577 8.06516 29395 ft 459 kts 72°
2026-04-24 12:35 53.31526 8.11561 28532 ft 452 kts 72°
2026-04-24 12:35 53.32477 8.16542 27680 ft 446 kts 69°
2026-04-24 12:35 53.33597 8.21334 26853 ft 439 kts 67°
2026-04-24 12:35 53.34698 8.26066 26054 ft 434 kts 67°
2026-04-24 12:36 53.35772 8.30753 25284 ft 429 kts 67°
2026-04-24 12:36 53.36826 8.35389 24534 ft 424 kts 67°
2026-04-24 12:36 53.37868 8.39988 23810 ft 419 kts 67°
2026-04-24 12:36 53.38892 8.44521 22995 ft 414 kts 67°
2026-04-24 12:37 53.39905 8.49006 22226 ft 408 kts 67°
2026-04-24 12:37 53.41041 8.53304 21478 ft 401 kts 63°
2026-04-24 12:37 53.42203 8.57524 20776 ft 395 kts 63°
2026-04-24 12:37 53.43327 8.61667 20301 ft 385 kts 63°
2026-04-24 12:38 53.44410 8.65687 19908 ft 372 kts 63°
2026-04-24 12:38 53.45456 8.69584 19513 ft 362 kts 63°
2026-04-24 12:38 53.46490 8.73443 19100 ft 371 kts 63°
2026-04-24 12:39 53.49684 8.85432 17844 ft 372 kts 63°
2026-04-24 12:39 53.50737 8.89393 17429 ft 369 kts 63°
2026-04-24 12:39 53.51778 8.93318 17017 ft 366 kts 63°
2026-04-24 12:40 53.52797 8.97159 16627 ft 363 kts 62°
2026-04-24 12:40 53.54103 9.00725 16153 ft 355 kts 43°
2026-04-24 12:40 53.55958 9.03350 15840 ft 345 kts 33°
2026-04-24 12:40 53.57875 9.05749 15481 ft 342 kts 33°
2026-04-24 12:41 53.59785 9.08095 15118 ft 339 kts 32°
2026-04-24 12:41 53.61686 9.10406 14748 ft 336 kts 32°
2026-04-24 12:41 53.63586 9.12698 14387 ft 334 kts 32°
2026-04-24 12:41 53.65467 9.14960 14024 ft 331 kts 32°
2026-04-24 12:42 53.67334 9.17205 13618 ft 329 kts 32°
2026-04-24 12:42 53.69190 9.19436 13227 ft 326 kts 32°
2026-04-24 12:42 53.71023 9.21641 12849 ft 322 kts 32°
2026-04-24 12:42 53.72844 9.23835 12509 ft 319 kts 32°
2026-04-24 12:43 53.74630 9.25988 12158 ft 316 kts 32°
2026-04-24 12:43 53.76418 9.28146 11792 ft 313 kts 32°
2026-04-24 12:43 53.78177 9.30272 11463 ft 310 kts 32°
2026-04-24 12:43 53.79901 9.32433 11148 ft 308 kts 39°
2026-04-24 12:44 53.81166 9.35333 10964 ft 309 kts 61°
2026-04-24 12:44 53.81767 9.38787 10873 ft 302 kts 72°
2026-04-24 12:44 53.82219 9.42191 10771 ft 292 kts 72°
2026-04-24 12:44 53.82646 9.45508 10656 ft 284 kts 72°
2026-04-24 12:45 53.83055 9.48768 10516 ft 284 kts 73°
2026-04-24 12:45 53.83459 9.52043 10384 ft 284 kts 73°
2026-04-24 12:45 53.83851 9.55263 10248 ft 283 kts 73°
2026-04-24 12:45 53.84244 9.58523 10112 ft 282 kts 73°
2026-04-24 12:46 53.84639 9.61805 9975 ft 281 kts 73°
2026-04-24 12:46 53.85022 9.65011 9829 ft 281 kts 73°
2026-04-24 12:46 53.85405 9.68218 9682 ft 275 kts 73°
2026-04-24 12:46 53.85777 9.71345 9552 ft 266 kts 72°
2026-04-24 12:47 53.86137 9.74369 9418 ft 258 kts 72°
2026-04-24 12:47 53.86488 9.77329 9294 ft 255 kts 72°
2026-04-24 12:47 53.86706 9.80326 9170 ft 262 kts 87°
2026-04-24 12:47 53.86506 9.83404 9048 ft 264 kts 91°
2026-04-24 12:48 53.86288 9.86492 8930 ft 263 kts 91°
2026-04-24 12:48 53.86071 9.89570 8813 ft 263 kts 91°
2026-04-24 12:48 53.85855 9.92638 8677 ft 262 kts 91°
2026-04-24 12:48 53.85636 9.95712 8549 ft 262 kts 91°
2026-04-24 12:49 53.85419 9.98767 8428 ft 261 kts 91°
2026-04-24 12:49 53.85200 10.01828 8306 ft 261 kts 91°
2026-04-24 12:49 53.84982 10.04876 8186 ft 261 kts 91°
2026-04-24 12:49 53.84764 10.07911 8058 ft 260 kts 91°
2026-04-24 12:50 53.84544 10.10956 7925 ft 259 kts 91°
2026-04-24 12:50 53.84325 10.13980 7806 ft 259 kts 91°
2026-04-24 12:50 53.84134 10.17001 7676 ft 256 kts 84°
2026-04-24 12:50 53.84539 10.19795 7515 ft 239 kts 53°
2026-04-24 12:51 53.85484 10.22014 7426 ft 236 kts 46°
2026-04-24 12:51 53.86494 10.24207 7330 ft 236 kts 46°
2026-04-24 12:51 53.87518 10.26371 7220 ft 236 kts 45°
2026-04-24 12:51 53.88550 10.28522 7103 ft 235 kts 45°
2026-04-24 12:52 53.89584 10.30658 6977 ft 234 kts 44°
2026-04-24 12:52 53.90619 10.32783 6842 ft 233 kts 44°
2026-04-24 12:52 53.91651 10.34896 6752 ft 233 kts 44°
2026-04-24 12:52 53.92686 10.37009 6649 ft 233 kts 44°
2026-04-24 12:53 53.93721 10.39122 6537 ft 233 kts 44°
2026-04-24 12:53 53.94748 10.41248 6418 ft 233 kts 49°
2026-04-24 12:53 53.95363 10.43819 6265 ft 244 kts 78°
2026-04-24 12:53 53.95183 10.46722 6140 ft 254 kts 105°
2026-04-24 12:54 53.94205 10.49240 6026 ft 261 kts 137°
2026-04-24 12:54 53.92609 10.50668 5932 ft 263 kts 168°
2026-04-24 12:54 53.90797 10.50807 5844 ft 261 kts 187°
2026-04-24 12:54 53.89054 10.50085 5723 ft 256 kts 211°
2026-04-24 12:55 53.87680 10.48296 5562 ft 247 kts 232°
2026-04-24 12:55 53.86517 10.46149 5384 ft 247 kts 233°
2026-04-24 12:55 53.85376 10.43961 5202 ft 247 kts 233°
2026-04-24 12:55 53.84254 10.41757 5024 ft 246 kts 234°
2026-04-24 12:56 53.83160 10.39583 4905 ft 238 kts 234°
2026-04-24 12:56 53.82110 10.37483 4778 ft 230 kts 234°
2026-04-24 12:56 53.81085 10.35442 4652 ft 228 kts 234°
2026-04-24 12:56 53.80059 10.33391 4552 ft 228 kts 234°
2026-04-24 12:57 53.79044 10.31333 4443 ft 228 kts 236°
2026-04-24 12:57 53.78036 10.29259 4386 ft 228 kts 234°
2026-04-24 12:57 53.77022 10.27177 4149 ft 230 kts 235°
2026-04-24 12:57 53.76000 10.25092 3867 ft 231 kts 236°
2026-04-24 12:58 53.74992 10.23027 3580 ft 230 kts 234°
2026-04-24 12:58 53.73970 10.20957 3350 ft 227 kts 233°
2026-04-24 12:58 53.72976 10.18949 3044 ft 221 kts 234°
2026-04-24 12:58 53.72006 10.16979 2734 ft 213 kts 235°
2026-04-24 12:59 53.71087 10.15113 2434 ft 200 kts 236°
2026-04-24 12:59 53.70229 10.13386 2158 ft 184 kts 235°
2026-04-24 12:59 53.69442 10.11797 1913 ft 171 kts 236°
2026-04-24 12:59 53.68707 10.10307 1695 ft 160 kts 237°
2026-04-24 13:00 53.68029 10.08932 1486 ft 143 kts 237°
2026-04-24 13:00 53.67418 10.07690 1338 ft 137 kts 238°
2026-04-24 13:00 53.66811 10.06457 1116 ft 136 kts 237°
2026-04-24 13:00 53.66202 10.05251 966 ft 134 kts 238°
2026-04-24 13:01 53.65622 10.04055 741 ft 132 kts 237°
2026-04-24 13:01 53.65025 10.02849 539 ft 134 kts 238°
2026-04-24 13:01 53.64433 10.01637 371 ft 133 kts 231°
2026-04-24 13:01 53.63841 10.00475 168 ft 128 kts 234°
2026-04-24 13:02 53.63290 9.99349 55 ft 115 kts 237°
2026-04-24 13:02 53.62877 9.98497 52 ft 66 kts 230°
2026-04-24 13:02 53.62691 9.98126 54 ft 56 kts 231°
2026-04-24 13:02 53.62525 9.97801 49 ft 16 kts 210°
2026-04-24 13:03 53.62430 9.97849 53 ft 15 kts 121°
2026-04-24 13:03 53.62432 9.97976 53 ft 10 kts 79°
2026-04-24 13:03 53.62460 9.98087 49 ft 9 kts 54°
2026-04-24 13:03 53.62464 9.98096 50 ft 0 kts 54°
2026-04-24 13:04 53.62463 9.98113 52 ft 6 kts 96°
2026-04-24 13:04 53.62466 9.98269 48 ft 18 kts 79°
2026-04-24 13:04 53.62490 9.98480 54 ft 17 kts 78°
2026-04-24 13:04 53.62513 9.98676 49 ft 18 kts 79°
2026-04-24 13:05 53.62537 9.98891 48 ft 17 kts 78°
2026-04-24 13:05 53.62558 9.99064 53 ft 15 kts 79°
2026-04-24 13:05 53.62578 9.99251 51 ft 17 kts 79°
2026-04-24 13:05 53.62603 9.99463 53 ft 19 kts 79°
2026-04-24 13:06 53.62627 9.99675 51 ft 17 kts 79°
2026-04-24 13:06 53.62664 9.99827 50 ft 14 kts 36°
2026-04-24 13:06 53.62750 9.99912 51 ft 15 kts 30°
2026-04-24 13:06 53.62834 9.99996 53 ft 12 kts 33°
2026-04-24 13:07 53.62906 10.00091 52 ft 14 kts 32°
2026-04-24 13:07 53.62949 10.00165 54 ft 8 kts 92°
2026-04-24 13:07 53.62935 10.00241 49 ft 5 kts 107°
2026-04-24 13:07 53.62931 10.00266 52 ft 0 kts 107°
2026-04-24 13:09 53.62928 10.00285 54 ft 0 kts 107°
2026-04-24 13:12 53.62928 10.00284 54 ft 0 kts 107°